Flag Weather past 2 weeks in Astana, Kazakhstan

Now
27 °F

Passing clouds.


Feels Like: 17 °F
Forecast: 26 / 36 °F
Wind: 10 mph from Southwest

Location: Astana

Current Time: Nov 1, 2014 at 1:30:01 AM

Latest Report: Nov 1, 2014 at 1:00 AM


Visibility: N/A

Pressure: 30.33 "Hg

Humidity: 93%

Dew point: 25 °F

Location of AstanaLocation

Historic Weather in Astana — Graph

°F

Astana temperature yesterday

Maximum temperature yesterday: 39 °F (at 3:30 PM)
Minimum temperature yesterday: 27 °F (at 11:30 PM)
Average temperature yesterday: 34 °F

Past Weeks' High & Low Weather Summary

 TemperatureHumidityPressure
High68 °F (Oct 19, 3:30 PM)100% (Oct 18, 6:00 AM)30.63 "Hg (Oct 18, 6:00 AM)
Low5 °F (Oct 28, 2:30 AM)19% (Oct 17, 4:00 PM)29.30 "Hg (Oct 20, 6:30 PM)
Average32 °F78%30.02 "Hg
* Reported Midnight between Oct 16 and Oct 17 — Nov 1 12:30 AM, Astana, Weather by CustomWeather, © 2014

Note: Actual official high and low records may vary slightly from our data, if they occured in-between our weather recording intervals... More about our weather records

Advertising

Astana weather history for previous 24 hours

 ConditionsComfort  
Time TempWeatherWind HumidityBarometerVisibility
12:30 AM
Nov 1
27 °FPassing clouds.10 mph93%30.33 "HgN/A
12:00 AM27 °FPassing clouds.10 mph93%30.33 "HgN/A
11:30 PM
Oct 31
27 °FPassing clouds.8 mph93%30.33 "HgN/A
11:00 PM28 °FPassing clouds.10 mph93%30.33 "HgN/A
10:30 PM30 °FPassing clouds.13 mph86%30.36 "HgN/A
10:00 PM32 °FPassing clouds.13 mph87%30.36 "HgN/A
9:30 PM32 °FPassing clouds.10 mph87%30.36 "HgN/A
9:00 PM30 °FPassing clouds.8 mph93%30.36 "HgN/A
8:30 PM32 °FPassing clouds.8 mph87%30.36 "HgN/A
8:00 PM32 °FPassing clouds.10 mph87%30.36 "HgN/A
7:30 PM32 °FPassing clouds.10 mph87%30.36 "HgN/A
7:00 PM34 °FPassing clouds.13 mph81%30.36 "HgN/A
6:30 PM34 °FPassing clouds.10 mph87%30.36 "HgN/A
6:00 PM34 °FPassing clouds.8 mph81%30.36 "HgN/A
5:30 PM36 °FScattered clouds.10 mph81%30.36 "HgN/A
5:00 PM37 °FPassing clouds.10 mph75%30.36 "HgN/A
4:30 PM39 °FPassing clouds.15 mph70%30.36 "HgN/A
4:00 PM39 °FPassing clouds.15 mph70%30.36 "HgN/A
3:30 PM39 °FPartly sunny.15 mph70%30.36 "HgN/A
3:00 PM37 °FOvercast.13 mph75%30.36 "HgN/A
2:30 PM37 °FOvercast.13 mph75%30.36 "HgN/A
2:00 PM37 °FOvercast.15 mph75%30.39 "HgN/A
1:30 PM37 °FOvercast.15 mph70%30.39 "HgN/A
1:00 PM37 °FOvercast.15 mph70%30.39 "HgN/A
12:30 PM37 °FMore clouds than sun.15 mph70%30.39 "HgN/A
12:00 PM36 °FOvercast.17 mph75%30.39 "HgN/A
11:30 AM36 °FOvercast.17 mph70%30.39 "HgN/A
11:00 AM36 °FOvercast.15 mph70%30.39 "HgN/A
10:30 AM36 °FOvercast.17 mph70%30.39 "HgN/A
10:00 AM36 °FOvercast.15 mph70%30.39 "HgN/A
9:30 AM36 °FOvercast.15 mph70%30.39 "HgN/A
9:00 AM34 °FOvercast.13 mph81%30.39 "HgN/A
8:30 AM34 °FOvercast.15 mph81%30.39 "HgN/A
8:00 AM34 °FOvercast.15 mph81%30.36 "HgN/A
7:30 AM34 °FOvercast.13 mph81%30.36 "HgN/A
7:00 AM34 °FOvercast.15 mph81%30.36 "HgN/A
6:30 AM34 °FOvercast.15 mph81%30.36 "HgN/A
6:00 AM34 °FOvercast.15 mph81%30.36 "HgN/A
5:30 AM34 °FOvercast.13 mph81%30.36 "HgN/A
5:00 AM34 °FOvercast.15 mph81%30.36 "HgN/A
4:30 AM34 °FMostly cloudy.15 mph87%30.36 "HgN/A
4:00 AM34 °FOvercast.13 mph87%30.36 "HgN/A
3:30 AM34 °FMostly cloudy.13 mph87%30.36 "HgN/A
3:00 AM34 °FMostly cloudy.10 mph87%30.36 "HgN/A
2:30 AM32 °FMostly cloudy.13 mph100%30.36 "HgN/A
2:00 AM32 °FDrizzle. Low clouds.13 mph100%30.36 "Hg6 mi
1:30 AM32 °FDrizzle. Ice fog.13 mph100%30.36 "Hg3 mi
1:00 AM32 °FLight freezing rain. Ice fog.13 mph93%30.36 "Hg3 mi
Weather by CustomWeather, © 2014

See weather overviewHow to use our weather pages